Location: *
(49.6619°S, 177.4603°W)
Time: 05:56:45
(UTC+00:00)

Cosmos 841 Rocket - Pass Details

Date: 31 January 2023
Orbit: 746 x 770 km, 74.0° (Epoch: 01 April)

Event Time Altitude Azimuth Distance (km) Brightness Sun altitude
Exits shadow 09:19:35 17° 12° (NNE) 1,876 5.0 -13.8°
Maximum altitude 09:23:16 42° 76° (ENE) 1,085 3.9 -14.2°
Drops below altitude 10° 09:28:10 10° 145° (SE) 2,308 6.2 -14.7°
Sets 09:30:38 0° 151° (SSE) 3,237 7.1 -14.9°
